Location: Baia Mare
(47.6567°N, 23.5850°E)
Time: 14:09:16
(UTC+03:00)

ISS - Pass Details

Date: 25 July 2019
Orbit: 409 x 418 km, 51.6° (Epoch: 21 July)

Event Time Altitude Azimuth Distance (km) Brightness Sun altitude
Rises 23:09:22 0° 288° (WNW) 2,355 0.9 -15.5°
Reaches altitude 10° 23:11:31 10° 295° (WNW) 1,490 -0.1 -15.7°
Maximum altitude 23:14:44 44° 9° (N) 586 -2.7 -16.0°
Enters shadow 23:17:16 15° 79° (E) 1,223 -1.6 -16.3°
